User: anonymous   Login
Location: Fort Wayne
(41.1310°N, 85.1290°W)
Time: 16:52:10
(UTC-04:00)
Language:

Helios 1B - Orbit

View from above orbital plane
View from above orbital plane
View from above satellite
View from above satellite

Ground track
Ground track

The orbit data is extracted from the following two-line orbital elements,

1 25977U 99064A   17177.27428026 +.00000062 +00000-0 +14706-4 0  9992
2 25977 098.1514 288.9495 0000389 153.5708 206.5524 14.82269892214051
Epoch (UTC): 26 June 2017 06:34:57
Eccentricity: 0.0000389
inclination: 98.1514°
perigee height: 622 km
apogee height: 622 km
right ascension of ascending node: 288.9495°
argument of perigee: 153.5708°
revolutions per day: 14.82269892
mean anomaly at epoch: 206.5524°
orbit number at epoch: 21405

The dashed part of the orbit path shows where the satellite is in the earth's shadow,  

DLR